FW0538 Weather Reports


Display with metric or nautical units.
time (UTC)temp
F
wind
direction
speed
MPH
gust
MPH
rain 1hr
in
rain 24hr
in
rain mn
in
humidity
%
barometer
mb
20260504190000 59 297 7.0 13.0 0.00 0.01 0.01 53 1008.2
20260504184557 58 314 5.0 21.0 0.00 0.01 0.01 54 1008.3
20260504183055 57 330 4.0 10.0 0.00 0.01 0.01 57 1008.6
20260504181554 55 1 7.0 11.0 0.00 0.01 0.01 65 1008.7
20260504180047 54 324 5.0 11.0 0.00 0.01 0.01 69 1008.8
20260504174544 52 309 7.0 9.0 0.00 0.01 0.01 75 1008.8
20260504173041 50 307 5.0 9.0 0.00 0.01 0.01 75 1008.9
20260504171538 49 324 5.0 11.0 0.00 0.01 0.01 74 1009.0
20260504081558 45 27 6.0 9.0 0.00 0.01 0.00 76 1008.5
20260504044533 49 316 4.0 11.0 0.00 0.01 0.01 70 1008.8
20260504043032 48 303 5.0 7.0 0.00 0.01 0.01 72 1009.0
20260504041532 49 353 3.0 6.0 0.00 0.01 0.01 70 1009.0
20260504040031 49 92 3.0 9.0 0.00 0.01 0.01 70 1008.7
20260504034531 49 335 4.0 7.0 0.00 0.01 0.01 71 1008.7
20260504033034 49 330 4.0 8.0 0.00 0.01 0.01 69 1008.5
20260504031531 51 4 0.0 0.0 0.00 0.01 0.01 64 1008.6
20260504030028 51 347 0.0 0.0 0.00 0.01 0.01 64 1008.2
20260504024528 52 335 0.0 0.0 0.00 0.01 0.01 62 1008.7
20260504023028 53 335 0.0 0.0 0.00 0.01 0.01 60 1008.9
20260504021529 53 335 0.0 1.0 0.00 0.01 0.01 60 1009.2
20260504020030 53 309 4.0 10.0 0.00 0.01 0.01 58 1009.2
20260504014540 55 322 6.0 12.0 0.00 0.03 0.01 55 1008.9
20260504013026 55 18 4.0 7.0 0.00 0.03 0.01 56 1008.8
20260504011526 55 21 0.0 10.0 0.00 0.03 0.01 58 1008.6
20260504010025 54 330 4.0 11.0 0.00 0.03 0.01 56 1008.5
20260504004524 52 279 8.0 19.0 0.00 0.06 0.01 60 1008.5
20260504003024 52 245 10.0 19.0 0.00 0.06 0.01 60 1008.6
20260504001525 51 237 15.0 23.0 0.00 0.06 0.01 62 1008.2
20260504000037 50 260 14.0 33.0 0.00 0.06 0.01 66 1008.1
20260503234522 47 259 16.0 37.0 0.00 0.06 0.01 81 1007.8
20260503233024 47 266 24.0 35.0 0.00 0.06 0.01 85 1007.7
20260503231520 48 245 14.0 31.0 0.00 0.06 0.01 88 1007.4
20260503230019 47 251 20.0 32.0 0.00 0.06 0.01 86 1007.1
20260503224516 51 218 21.0 36.0 0.00 0.06 0.01 63 1008.9
20260503223015 55 222 21.0 33.0 0.00 0.06 0.01 52 1008.1
20260503221513 59 191 20.0 33.0 0.00 0.06 0.01 46 1007.2
20260503220014 68 137 11.0 22.0 0.00 0.06 0.01 34 1005.9
20260503214521 70 120 1.0 9.0 0.00 0.06 0.01 27 1005.6
20260503213007 69 37 3.0 7.0 0.00 0.06 0.01 27 1005.5
20260503211506 69 7 2.0 9.0 0.00 0.06 0.01 27 1005.7
20260503210005 69 285 0.0 4.0 0.00 0.06 0.01 31 1006.2
20260503204501 70 143 0.0 5.0 0.00 0.06 0.01 30 1006.4
20260503203106 69 87 3.0 9.0 0.00 0.06 0.01 28 1006.6
20260503201556 69 8 0.0 5.0 0.00 0.06 0.01 32 1006.8
20260503200054 68 121 1.0 8.0 0.00 0.06 0.01 36 1006.9
20260503194608 68 75 1.0 7.0 0.00 0.06 0.01 34 1007.2
20260503193048 68 63 1.0 8.0 0.00 0.06 0.01 37 1007.5
20260503191547 68 216 1.0 7.0 0.00 0.06 0.01 37 1008.0